Regional Weather Roundup
Issued by NWS

Home | Current Version | Previous Version | Text Only | Print | Product List | Glossary On
Versions: 1 2 3 4 5 6 7 8 9 10 11 12 13 14 15 16 17 18 19 20 21 22 23 24 25 26 27 28 29 30 31 32 33 34 35 36 37 38 39 40 41 42 43 44 45 46 47 48 49 50
000
ASUS46 KSEW 221310
RWRWA

WASHINGTON REGIONAL WEATHER ROUNDUP
NATIONAL WEATHER SERVICE SEATTLE WA
500 AM PST SUN JAN 22 2017

NOTE:"FAIR" INDICATES FEW OR NO CLOUDS BELOW 12,000 FEET WITH NO
SIGNIFICANT WEATHER AND/OR OBSTRUCTIONS TO VISIBILITY.

WAZ507-509-555>559-221400-
SEATTLE, TACOMA, EVERETT, AND VICINITY

CITY           SKY/WX    TMP DP  RH WIND       PRES   REMARKS
EVERETT        MOCLDY    42  32  67 E9        29.43F
BOEING FIELD   CLOUDY    44  34  67 W3        29.44F
RENTON         MOCLDY    39  36  89 CALM      29.43F
SEATAC AIRPORT MOCLDY    41  35  79 N6        29.43F
JBLM-MCCHORD   CLOUDY    36  36  99 N3        29.42F
PUYALLUP       DRIZZLE   36  36 100 CALM      29.41F
BREMERTON      CLOUDY    37  37 100 N6        29.46F
JBLM-FT LEWIS  CLOUDY    36  36 100 CALM      29.41F
TACOMA NARROWS CLOUDY    41  37  86 N3        29.43F
$$

WAZ001-503-506-510-514-515-221400-
NORTH INTERIOR

CITY           SKY/WX    TMP DP  RH WIND       PRES   REMARKS
BELLINGHAM     PTCLDY    33  32  96 N6        29.50F
FRIDAY HARBOR  MOCLDY    45  36  70 NE9       29.47F
EASTSOUND      MOCLDY    43  37  81 NW7       29.48F
PORT ANGELES   CLOUDY    32  32 100 CALM      29.42F FOG
EDIZ HOOK      FAIR      38  36  91 CALM      29.42F
PORT TOWNSEND  FAIR      39  39 100 CALM      29.47F
NAS WHIDBEY    MOCLDY    43  33  68 E7        29.50F
ARLINGTON      NOT AVBL
BURLINGTON     CLEAR     39  34  81 NE12      29.48F
$$

WAZ020-022-039-040-504-511-512-221400-
SOUTHWEST INTERIOR

CITY           SKY/WX    TMP DP  RH WIND       PRES   REMARKS
SHELTON        CLOUDY    42  39  89 NE3       29.40F
OLYMPIA        CLOUDY    38  38 100 N7        29.41F
CHEHALIS       CLOUDY    37  37 100 NE3       29.40F
KELSO          CLOUDY    40  38  93 SE5       29.43F
VANCOUVER      LGT RAIN  44  37  76 E10       29.40F
SCAPPOOSE, OR  LGT RAIN  38  38 100 SW3       29.41F
PORTLAND, OR   LGT RAIN  41  40  96 E14       29.39F
$$

WAZ021-516-517-221400-
WASHINGTON COAST

CITY           SKY/WX    TMP DP  RH WIND       PRES   REMARKS
FORKS          CLOUDY    38  36  92 E5        29.33F
HOQUIAM        CLOUDY    42  41  96 E15       29.37F
ASTORIA, OR    CLOUDY    46  37  71 SE14      29.33S
$$

WAZ019-023-024-040-567>569-221400-
CASCADE MOUNTAINS AND COLUMBIA GORGE

CITY           SKY/WX    TMP DP  RH WIND       PRES   REMARKS
STAMPEDE PASS  NOT AVBL
TROUTDALE, OR  LGT RAIN  41  36  82 E21       29.41F
THE DALLES, OR LGT RAIN  33  32  96 N6        29.58F FOG
$$

WAZ026-027-041>044-520-521-221400-
EAST SLOPES

CITY           SKY/WX    TMP DP  RH WIND       PRES   REMARKS
OMAK           CLOUDY    34  30  85 NW5       29.69F
WENATCHEE      CLOUDY    33  33 100 NE3       29.65F FOG
ELLENSBURG     MOCLDY    34  31  88 SE7       29.60F
YAKIMA         FOG       33  32  96 W3        29.63F VSB 1/4
$$

WAZ028-034-035-221400-
COLUMBIA BASIN

CITY           SKY/WX    TMP DP  RH WIND       PRES   REMARKS
EPHRATA        MOCLDY    33  29  85 N5        29.66R
MOSES LAKE     PTCLDY    28  25  88 W6        29.66R
PASCO          FOG       29  29 100 W5        29.66F VSB 1/4
HERMISTON, OR  CLOUDY    32  28  85 E7        29.59F
$$

WAZ036>038-221400-
NORTHEAST WASHINGTON

CITY           SKY/WX    TMP DP  RH WIND       PRES   REMARKS
SPOKANE GEIGER MOCLDY    33  31  92 NE7       29.69F
SPOKANE FELTS  PTCLDY    34  32  92 SE3       29.72F
FAIRCHILD AFB  PTCLDY    32  32 100 E9        29.67F
COEURDALENE,ID CLOUDY    32  31  96 NE6       29.74F
DEER PARK      CLOUDY    34  32  92 N7        29.72F
$$

WAZ029>033-221400-
SOUTHEAST WASHINGTON

CITY           SKY/WX    TMP DP  RH WIND       PRES   REMARKS
PULLMAN        PTCLDY    34  30  85 E17       29.69F WCI  23
LEWISTON, ID   PTCLDY    34  29  82 E8        29.72F
WALLA WALLA    PTCLDY    40  28  62 VRB5      29.60F
PENDLETON, OR  MOCLDY    41  29  62 E14       29.57F
$$



USA.gov is the U.S. government's official web portal to all federal, state and local government web resources and services.